軌道要素
Epoch 2014 May 23.0 TT = JDT 2456800.5
T 2014 May 6.21494 TT MPCW
q 2.0441738 (2000.0) P Q
n 0.14870435 Peri. 274.47651 +0.92313601 -0.35561393
a 3.5284742 Node 106.40815 +0.38447186 +0.85270957
e 0.4206635 Incl. 8.76317 +0.00114252 +0.38265534
P 6.63
From 524 observations 2000 Aug. 5-2014 Dec. 31, mean residual 0".6.
|